Location: Tucson
(32.2217°N, 110.9265°W)
Time: 15:54:30
(UTC-07:00)

Hubble Space Telescope - Pass Details

Date: 06 October 2021
Orbit: 535 x 538 km, 28.5° (Epoch: 23 October)

Event Time Altitude Azimuth Distance (km) Brightness Sun altitude
Exits shadow 04:59:07 - 193° (SSW) 2,061 3.6 -18.2°
Reaches altitude 10° 05:00:36 10° 176° (S) 1,775 3.4 -17.9°
Maximum altitude 05:02:05 12° 155° (SSE) 1,670 3.5 -17.6°
Drops below altitude 10° 05:03:34 10° 133° (SE) 1,777 4.0 -17.2°
Sets 05:07:11 0° 101° (E) 2,669 5.9 -16.5°
